Regional Weather Roundup
Issued by NWS Charleston, SC

Current Version | Previous Version | Graphics & Text | Print | Product List | Glossary On
Versions: 1 2 3 4 5 6 7 8 9 10 11 12 13 14 15 16 17 18 19 20 21 22 23 24 25 26 27 28 29 30 31 32 33 34 35 36 37 38 39 40 41 42 43 44 45 46 47 48 49 50
355
ASUS42 KCHS 242012
RWRCHS

REGIONAL WEATHER ROUNDUP
NATIONAL WEATHER SERVICE CHARLESTON SC
400 PM EDT FRI MAR 24 2017

NOTE: "FAIR" INDICATES FEW OR NO CLOUDS BELOW 12,000 FEET WITH NO
SIGNIFICANT WEATHER AND/OR OBSTRUCTIONS TO VISIBILITY.

NOT ALL STATIONS ARE QUALITY CONTROLLED. USE DATA WITH CAUTION...
ESPECIALLY DEWPOINT OBSERVATIONS.

SCZ027-030-031-034>040-042>050-242100-
...SOUTHEAST SOUTH CAROLINA...

CITY           SKY/WX    TMP DP  RH WIND       PRES   REMARKS
N CHARLESTON   MOSUNNY   73  48  41 SE16      30.41F
WATERFRONT PRK   N/A     68  59  73 SE7       30.40F
JOHNS ISLAND   FAIR      72  52  49 SE9       30.42F
PINOPOLIS        N/A     72  50  46 VRB3      30.33F
MONCKS CORNER  FAIR      72  45  37 SE10      30.40F
SUMMERVILLE    CLOUDY    72  46  40 SE6       30.40F
BEAUFORT MCAS  MOSUNNY   74  52  46 SE12      30.40F
BEAUFORT ARPT  FAIR      73  50  43 SE6       30.40F
HILTON HEAD IS MOSUNNY   70  55  60 NE9       30.42F
WALTERBORO     PTCLDY    73  46  38 S7G17     30.40F
ALLENDALE      FAIR      73  48  40 SE12      30.36F

...SOUTHERN MIDLANDS AND PEE DEE...

CITY           SKY/WX    TMP DP  RH WIND       PRES   REMARKS
GEORGETOWN     CLOUDY    68  50  52 E10       30.43F
KINGSTREE      CLOUDY    72  46  40 SE7       30.40S
ORANGEBURG     MOSUNNY   74  46  36 S14       30.38F
BARNWELL       MOCLDY    77  50  38 SE10G22   30.37F
AIKEN          FAIR      72  43  35 SE9       30.39F
MANNING        FAIR      72  45  37 SW7       30.39F
COLUMBIA       MOSUNNY   76  44  32 S9        30.36F
SUMTER         PTSUNNY   74  44  34 SE6       30.36F
FLORENCE       MOSUNNY   73  44  35 SE8       30.39F
MYRTLE BEACH   MOSUNNY   70  50  49 SE12      30.44F
N MYRTLE BEACH SUNNY     68  50  52 S8        30.43F

$$

GAZ063-065-086>088-099>101-113>116-118-119-134>141-150-242100-
...SOUTHEAST GEORGIA...

CITY           SKY/WX    TMP DP  RH WIND       PRES   REMARKS
SAVANNAH ARPT  PTSUNNY   75  48  38 S15       30.39F
HUNTER AAF     PTSUNNY   74  53  47 E17G23    30.36F
FORT STEWART   PTSUNNY   74  52  46 E17       30.35F
STATESBORO     SUNNY     76  50  39 S12G18    30.36F
SYLVANIA       PTCLDY   N/A N/A N/A S6        30.37F
CLAXTON        MOCLDY    73  53  48 E7        30.36F

...CSRA...CENTRAL AND FAR SOUTHEAST GEORGIA...

CITY           SKY/WX    TMP DP  RH WIND       PRES   REMARKS
THOMSON        MOSUNNY   74  46  36 SW9       30.40F
AUGUSTA-BUSH   SUNNY     79  44  28 SE13G21   30.34F
AUGUSTA-DANIEL SUNNY     75  41  29 SE9G18    30.36F
SWAINSBORO     FAIR      77  45  31 E14       30.35F
VIDALIA        MOSUNNY   77  50  38 SE13G20   30.34F
EASTMAN        FAIR      79  25  13 S8        30.35F
HAZLEHURST     FAIR      78  50  37 S9        30.32F
ALMA           MOSUNNY   76  48  37 SE14G21   30.33F
WAYCROSS       MOSUNNY   80  53  39 SE16      30.33F
JESUP          MOCLDY    73  48  40 SE10G17   30.36F
BAXLEY         PTSUNNY   77  55  47 SE9G17    30.33F
BRUNSWICK      MOSUNNY   75  55  50 SE17      30.38F
SAINT SIMONS   SUNNY     71  57  61 E12       30.38F

$$

SCZ027-028-034-036>038-045-046-048>050-GAZ119-141-242100-
...LAKE AND SUPPLEMENTAL COASTAL OBSERVATIONS...

STATION/POSITION TIME  TEMP    WIND        PRES    WAVE   SWELL
                       AIR SEA DIR/SP/G            HT/PER HT/PER/DIR
                 (UTC) (F)     (DEG/KT/KT) (MB)    (FT/S) (FT/S/D)
WINYAH BAY       1845   65      90/  7     1031.0
LAKE MURRAY      1920   81        CALM     1028.1
ACE BASIN NERRS  1845   73     130/  4     1030.0
FORT PULASKI     1948   65 61   80/  8/ 11 1029.9F
SAPELO ISLAND    1900   71      90/ 10     1030.0

$$

ANZ835-935-AMZ111-154-330-350-352-354-370-450-454-472-242100-
...C-MAN AND BUOY OBSERVATIONS...

STATION/POSITION TIME  TEMP    WIND        PRES    WAVE   SWELL
                       AIR SEA DIR/SP/G            HT/PER HT/PER/DIR
                 (UTC) (F)     (DEG/KT/KT) (MB)    (FT/S) (FT/S/D)
BUOY 41004       1850   69 72  150/ 12/ 14 1030.2    5/ 7   3/110/ 7
BUOY 41008       1850   64 63   20/  6/  6 1029.8    5/ 8   5/100/ 8
FOLLY BEACH CMAN 1900   63      70/  8/  9 1031.4F
CAPERS NEARSHORE 1908   60      70/  8/ 10 1030.5F
FRIPP NEARSHORE  1908   62 61   60/  8/ 10 1030.0F


STATION/POSITION TIME  TEMP    WIND        PRES    WAVE   SWELL
                       AIR SEA DIR/SP/G            HT/PER HT/PER/DIR
                 (UTC) (F)     (DEG/KT/KT) (MB)    (FT/S) (FT/S/D)
5E ST. MARYS GA  1930      65                N/A     5/ 8   2/ 80/11
FRYING PAN BUOY  1950   68 72  170/ 10/ 14 1030.3F   4/ 9   3/100/ 9
BUOY 41025       1950   65 75  210/ 16/ 21 1030.7F   4/10   3/ 80/10
CAPE LOOKOUT NC  1900   66     190/ 12/ 13 1031.2F
BUOY 41002       1850   64 73   80/ 14/ 16 1031.8    5/ 7   3/ 80/ 7
BUOY 41010       NOT AVBL
ST AUGUSTINE FL  2000   67 67   90/  8/  9 1028.5F


$$




USA.gov is the U.S. government's official web portal to all federal, state and local government web resources and services.